Regional Weather Roundup
Issued by NWS

Home | Current Version | Previous Version | Graphics & Text | Print | Product List | Glossary On
Versions: 1 2 3 4 5 6 7 8 9 10 11 12 13 14 15 16 17 18 19 20 21 22 23 24 25 26 27 28 29 30 31 32 33 34 35 36 37 38 39 40 41 42 43 44 45 46 47 48 49 50
000
ASUS45 KTFX 102210
RWRMT
MONTANA REGIONAL WEATHER ROUNDUP
NATIONAL WEATHER SERVICE GREAT FALLS MT
300 PM MST SAT DEC 10 2016

NOTE: "FAIR" INDICATES FEW OR NO CLOUDS BELOW 12000 FEET WITH NO
SIGNIFICANT WEATHER AND/OR OBSTRUCTIONS TO VISIBILITY.

MTZ001>007-043-102300-
WEST OF THE DIVIDE

CITY           SKY/WX    TMP DP  RH WIND       PRES   REMARKS
KALISPELL      CLOUDY    15   9  76 CALM      29.83S
MISSOULA       CLOUDY    23  18  81 E5        29.81S
BUTTE          CLOUDY    32  15  49 NW12      29.67R WCI  23
MULLAN PASS    CLOUDY    18  16  92 VRB7      29.69R WCI   9
ANACONDA         N/A     34  12  40 W18G28    29.69R WCI  23
DEER LODGE       N/A     30  21  69 NW16G24   29.73R WCI  19
EUREKA           N/A     12   3  67 CALM      29.87S
HAMILTON         N/A     25  16  68 CALM      29.80R
LIBBY            N/A     25  12  58 CALM      29.85R
PLAINS           N/A     21  11  65 CALM      29.87
RONAN            N/A     17  10  74 CALM      29.87R
$$

MTZ008-052>055-102300-
SOUTHWEST MONTANA

CITY           SKY/WX    TMP DP  RH WIND       PRES   REMARKS
BOZEMAN        LGT SNOW  20  17  88 NW7       29.71R VSB 3/4 WCI  11
DILLON         FLURRIES  32  27  81 SW8       29.70R WCI  25
W YELLOWSTONE  CLOUDY    30  27  86 SW22G35   29.66R WCI  17
ENNIS          PTSUNNY   34  25  69 W16G22    29.74R WCI  23
$$

MTZ009-010-012-014-046-048-049-054-102300-
EAST SLOPES AND CENTRAL MONTANA

CITY           SKY/WX    TMP DP  RH WIND       PRES   REMARKS
CUT BANK       MOSUNNY    5  -3  69 CALM      29.69S
GREAT FALLS    CLOUDY     9   3  77 S7        29.71R WCI  -2
MALMSTROM AFB  PTSUNNY    9   4  82 SW5       29.73S
HELENA         CLOUDY    16   8  71 E5        29.72R
AUGUSTA        FLURRIES   6   1  78 NE6       29.64R WCI  -4
BOWMANS CRNR     N/A      6   3  89 SW9       29.64R WCI  -8
CHOTEAU          N/A      9   0  66 MISG      29.70R
FAIRFIELD        N/A      8   1  74 E2        29.68R
POWER            N/A      6   3  88 SE1       29.70R
RAYNESFORD       N/A      6   0  78 W3        29.68R
ULM              N/A      4  -1  81 W7        29.72R WCI  -8
$$

MTZ011-013-016-021-045-047-050-051-102300-
NORTH CENTRAL MONTANA

CITY           SKY/WX    TMP DP  RH WIND       PRES   REMARKS
HAVRE          CLOUDY     6   2  83 E8        29.79R WCI  -7
LEWISTOWN      FLURRIES   9   6  88 W12       29.66R WCI  -6
N BAR RANCH      N/A     16  12  86 E3        29.59F
CHINOOK          N/A      5   1  85 E12       29.81S VSB 1/4 WCI -11
DENTON         FLURRIES   8   5  86 NE12      29.66R WCI  -7
FORT BENTON      N/A     10   3  72 N3        29.79R
GEYSER           N/A      9   4  79 W13G20    29.64F WCI  -6
GRASS RANGE    PTSUNNY   11   8  86 N5        29.60R
JUDITH GAP     PTSUNNY   22  20  89 S15       29.57F WCI   9
ROY            FLURRIES   9   7  92 MISG      29.66R
STANFORD       FLURRIES   7   4  89 E2        29.63R
WINIFRED       LGT SNOW   7   5  91 MISG      29.67R
$$

MTZ017>020-022>027-061-062-102300-
NORTHEAST MONTANA

CITY           SKY/WX    TMP DP  RH WIND       PRES   REMARKS
GLASGOW        HVY SNOW   2  -3  80 E17       29.83S VSB 1/4 WCI -18
JORDAN           N/A     10   6  84 E10       29.75R WCI  -4
SIDNEY         FLURRIES   4  -3  73 E14       29.93F WCI -14
WOLF POINT     LGT SNOW   5  -2  72 E14       29.90F WCI -12
PLENTYWOOD       N/A      1  -4  78 E18       29.93S WCI -19
SCOBEY           N/A      0 -12  56 E13       29.87  WCI -18
$$

MTZ028>42-056>058-102300-
SOUTHCENTRAL AND SOUTHEAST MONTANA

CITY           SKY/WX    TMP DP  RH WIND       PRES   REMARKS
BAKER          CLOUDY     2  -4  76 SE24      29.76F WCI -21
BILLINGS       LGT SNOW  14  10  84 CALM      29.65R VSB 1
LIVINGSTON     SNOW      26  23  88 VRB7      29.65R VSB 1/4 WCI  18
MILES CITY     CLOUDY    12   2  64 SE8       29.75S WCI   0
BIG TIMBER     PTSUNNY   14  12  92 VRB6      29.65R FOG     WCI   5
EKALAKA          N/A      5  -3  69 E23       29.65  WCI -17
FORSYTH          N/A     14   7  73 E5        29.71R
HARLOWTON      CLOUDY    21  18  89 W10       29.59F WCI  10
LAUREL           N/A     14   0  54 SE1       29.66R VSB 0
ROUNDUP          N/A     17   9  71 N1        29.62R
$$

REGIONAL REPORTS...DAKOTAS

CITY           SKY/WX    TMP DP  RH WIND       PRES   REMARKS
WILLISTON      LGT SNOW   2  -5  72 E12       29.99F WCI -15
MINOT          CLOUDY    -8 -13  78 E9        30.11F WCI -25
DICKINSON      CLOUDY    -2  -8  76 E16       29.88S WCI -23
BEACH          CLOUDY     1   0  92 SE21      29.84F WCI -20
CROSBY         FLURRIES   1  -2  85 E14       30.04F WCI -17
TIOGA            N/A     -2  -4  92 E17       29.99F FOG     WCI -24
WATFORD CITY   FLURRIES   0  -8  71 SE15G21   29.97S WCI -20
BISMARCK       LGT SNOW  -3  -7  82 E13       30.08F FOG     WCI -22
GRAND FORKS    CLOUDY    -3  -9  75 E8        30.31F WCI -18
FARGO          CLOUDY     1  -6  72 NE9       30.29F WCI -14
BUFFALO SD       N/A      2  -3  80 E13       29.71S WCI -15
RAPID CITY     CLOUDY     8   2  76 E6        29.78F WCI  -2
$$

REGIONAL REPORTS...WYOMING/IDAHO/WASHINGTON

CITY           SKY/WX    TMP DP  RH WIND       PRES   REMARKS
GILLETTE       CLOUDY    20  15  81 SE12      29.56F WCI   8
SHERIDAN       CLOUDY    18  10  71 NW5       29.57F
BUFFALO WY     CLOUDY    33  21  61 SE6       29.53F WCI  28
CODY           CLOUDY    34  27  75 N3        29.57R
YELLOWSTONE LA   N/A     28  24  85 W8G17     29.66R WCI  20
IDAHO FALLS    CLOUDY    35  33  92 SW23G35   29.75R WCI  23
SALMON         CLOUDY    25  23  93 CALM      29.79S
BOISE          FOG       34  34 100 SW3       29.85F VSB<1/4
SPOKANE        CLOUDY    20  18  92 S6        29.92R WCI  12
$$

REGIONAL REPORTS...ALBERTA

CITY           SKY/WX    TMP DP  RH WIND       PRES   REMARKS
EDMONTON       CLOUDY    -6 -13  71 NE3       29.96S
CALGARY        LGT SNOW  -2  -8  78 SE6       29.74R WCI -14
LETHBRIDGE     LGT SNOW   1  -4  78 NW6       29.81R WCI -10
MEDICINE HAT   SNOW       5   0  78 NW6       29.87R VSB 1/2 WCI  -6
WATERTON GATE    N/A      1  -8  66 E6          N/A  WCI -10
CARDSTON         N/A      1  -8  66 N5          N/A
MILK RIVER       N/A      5   1  85 NE6         N/A  WCI  -6
ONEFOUR          N/A      3   0  85 N3          N/A
$$

REGIONAL REPORTS...SASKATCHEWAN

CITY           SKY/WX    TMP DP  RH WIND       PRES   REMARKS
SWIFT CURRENT  FLURRIES   3  -2  78 SE18      29.81F WCI -17
REGINA         MOCLDY    -6 -11  77 SE14G20   30.04F WCI -26
SASKATOON      PTCLDY     1  -6  71 E9        30.08S WCI -14
CYPRESS HILLS    N/A      0  -4  85 S3          N/A
ROCKGLEN         N/A     -2  -4  92 SE15        N/A  WCI -22
ASSINIBOIA       N/A     -4  -8  84 N3          N/A
$$



USA.gov is the U.S. government's official web portal to all federal, state and local government web resources and services.